Retour au catalogue

HAWK-14B

ActifScienceSSO
NORAD 68436·PAYLOAD·🇺🇸 United States

Lancé Mar 30, 2026 depuis Vandenberg Space Force Base

Loading…

Prochains Passages (prochaines 24 heures)

TLE

FraisSource: Space-Track

Époque: Sep 14, 2026, 07:19 UTC

1 68436U 26067W   26257.30490044  .00003547  00000-0  17352-3 0  9994
2 68436  97.4647 214.5531 0004438  92.4209 267.7534 15.18841539 25468

Suivez HAWK-14B en temps réel avec AllMySat

Download on the App Store